Torna al catalogo

SL-12 R/B

AUX MOTOR

AttivoHEO
NORAD 36116·ROCKET BODY·🇷🇺 Russia

Lanciato Dec 14, 2009 da Baikonur Cosmodrome

Loading…

Prossimi Passaggi (prossime 24 ore)

TLE

AggiornatoSource: Space-Track

Epoca: Sep 13, 2026, 18:24 UTC

1 36116U 09070F   26256.76713507 -.00000043  00000-0 -47406-3 0  9993
2 36116  64.9782 174.2403 5574929 295.7503  17.8196  4.35655714104892

Traccia SL-12 R/B in tempo reale con AllMySat

Download on the App Store